COSMOS 1275 DEB

Satellite information

Favourite Embed

Satellite Type and Status

DEBRISIN ORBIT

Key statistics

Satellite COSMOS 1275 DEB at a glance.

Uptime

16263

Days in orbit

Revolutions

≈ 14.0

Per day

Orbit

LEO

Low Earth Orbit

Inclination

82.9

Latest

Satellite identification and parameters

Extended collection of information and parameters for COSMOS 1275 DEB.

Object identification

Identified? True

Debris? True

Object name: COSMOS 1275 DEB

International designator: 1981-053SE

Object number (NORAD): 42166

Object ID (CCSDS): 42166

Country: COMMONWEALTH OF INDEPENDENT STATES (CIS)

Current information (Y/N): Y

RCS size: SMALL

Orbital parameters

Period: 103.035 minutes

Inclination: 82.8847 deg

SMA: 7280.303 km

Apoapsis: 999.149 km

Periapsis: 805.188 km

RAAN: 33.2313 deg

Eccentricy: 0.013321

Argument of periapsis: 11.2813 deg

Mean anomaly: 349.1289 deg

Mean motion: 13.97586001 rev/day

Mean motion (dot): 0.00005655 rev/day2

B* drag term: 0.0037131 1/REarth

Two-line elements (TLE)

Creation date: Dec. 12, 2025, 7:16 a.m.

Reference frame: TEME

Reference center: EARTH

Epoch: Dec. 11, 2025, 9:05 p.m. UTC

TLE line 0: 0 COSMOS 1275 DEB

TLE line 1: 1 42166U 81053SE 25345.87901569 .00005655 00000-0 37131-2 0 9998

TLE line 2: 2 42166 82.8847 33.2313 0133210 11.2813 349.1289 13.97586001609864

Live tracking on map

Real-time ground track for satellite COSMOS 1275 DEB.

In-orbit conjunctions

A list of the most updated potential collisions computed for object COSMOS 1275 DEB.

Target Orbit TCA Probability of collision Miss distance Type
SL-3 R/B LEO 2025-11-29 03:55:11 0.0001341443 313.0 (m) ROCKET BODY
ATLAS H R/B LEO 2025-10-09 05:07:20 0.0001162909 63.0 (m) ROCKET BODY
DELTA 1 DEB SSO 2024-11-14 07:47:10 0.000160007 269.0 (m) DEBRIS

Associated space launch

Navigation satellite providing location information for the Tsiklon-B navigation system

COSMOS 1275 DEB was lifted into orbit during the mission ‘Kosmos-3M | Parus 27’, on board a Kosmos-3M space rocket.

The launch took place on June 4, 1981, 3:41 p.m. from 132/2.

For more information about the launch, click the button.

Launch to space Kosmos-3M | Parus 27
Kosmos-3M | Parus 27

Agency: N/A

Status: Launch Successful

Launch date: June 4, 1981, 3:41 p.m. UTC

Rocket: Kosmos-3M

Launch pad: 132/2

Location: Plesetsk Cosmodrome, Russian Federation

...

Latest news about this satellite

There are no fresh news available about this satellite. Check back as we update our databases every day.


Newsletter sign-up

Weekly statistics, charts and insights to help you stay on top of the space industry.